Location: Les Gen�tes
(46.3104°N, 1.5969°E)
Time: 20:04:23
(UTC+00:00)

NOSS 3-4 (C) - Pass Details

Date: 01 June 2020
Orbit: 893 x 1319 km, 63.4° (Epoch: 02 July)

Event Time Altitude Azimuth Distance (km) Brightness Sun altitude
Exits shadow 21:36:46 22° 140° (SE) 1,876 4.4 -15.0°
Maximum altitude 21:38:38 26° 112° (ESE) 1,734 4.4 -15.2°
Drops below altitude 10° 21:43:34 10° 59° (ENE) 2,680 5.8 -15.6°
Sets 21:46:37 0° 47° (NE) 3,688 6.7 -15.9°
